sat.trackr.live / text

‹ back to catalog

STARLINK-31537

NORAD 59365 · 2024-060T

PAYLOAD ACTIVE UNKNOWN

§ Identity

Operator
Country
US
Launch date
2024-03-31
Launch site
AFETR
Launch vehicle
Mass (kg)
RCS (m²)

Purposes: comms

External: N2YO · Heavens-Above · Gunter

§ Orbital elements

Epoch: 2026-09-20T23:03:46.092096Z

Period
94.27 min
Inclination
43.0002°
Eccentricity
0.0001096
Mean motion
15.27557776 rev/d
Perigee alt
482.4 km
Apogee alt
483.9 km
Semi-major
6,861.3 km
B*
-6.2436e-5
RAAN
237.3539°
Arg perigee
280.5349°
Mean anomaly
79.5379°
Rev number
13,992

§ Raw data

STARLINK-315371 59365U 24060T   26263.96095014 -.00001978  00000+0 -62436-4 0  99942 59365  43.0002 237.3539 0001096 280.5349  79.5379 15.27557776139924

JSON: /api/v1/satellites/59365 · /tle

For live sub-satellite position, see the globe view (requires WebGL).

§ Visibility from observer

Set your observer location to see the next 7 days of passes ≥ 10°. The values pass through the URL so the page stays shareable.

No JS? Fill the form by hand. The geolocation button needs JavaScript.